Weather History for Marfa, TX

Change the Weather History Date:

Wednesday, June 26, 2013

  Actual Average Record
Temperature  
Mean Temperature 79 °F -  
Max Temperature 96 °F 85 °F 100 °F (1998)
Min Temperature 62 °F 59 °F 55 °F (2004)
Cooling Degree Days 14    
Growing Degree Days 29 (Base 50)    
Moisture  
Dew Point 54 °F    
Average Humidity 50    
Maximum Humidity 94    
Minimum Humidity 14    
Precipitation  
Precipitation 0.00 in - - ()
Sea Level Pressure  
Sea Level Pressure 30.14 in    
Wind  
Wind Speed 5 mph (WSW)    
Max Wind Speed 15 mph    
Max Gust Speed 23 mph    
Visibility 10 miles    
Events      
Averages and records for this station are not official NWS values.
T = Trace of Precipitation, MM = Missing Value Source: NWS Daily Summary

Daily Weather History Graph

Daily Weather History Graph

Search for Another Location

Airport:

Trip Planner

Search our weather history database for the weather conditions in past years. The results will help you decide how hot, cold, wet, or windy it might be!

Date:

Astronomy

Jun. 26, 2013 Rise Set
Actual Time 6:55 AM CDT 9:01 PM CDT
Civil Twilight 6:28 AM CDT 9:29 PM CDT
Nautical Twilight 5:54 AM CDT 10:03 PM CDT
Astronomical Twilight 5:18 AM CDT 10:39 PM CDT
Moon 11:45 PM CDT (6/26) 10:34 AM CDT (6/26)
Length of Visible Light 15h 01m
Length of Day
14h 05m
Waning Gibbous, 85% of the Moon is Illuminated
Jun 26
Waning Gibbous
Jun 29
Last Quarter
Jul 8
New
Jul 15
First Quarter
Jul 22
Full

Hourly Weather History & Observations

Time (CDT) Temp. Heat Index Dew Point Humidity Pressure Visibility Wind Dir Wind Speed Gust Speed Precip Events Conditions
12:15 AM 73.4 °F - 64.4 °F 73% 30.13 in 10.0 mi SSE 3.5 mph - N/A   Clear
12:35 AM 73.4 °F - 64.4 °F 73% 30.13 in 10.0 mi SSE 3.5 mph - N/A   Clear
12:55 AM 73.4 °F - 64.4 °F 73% 30.13 in 10.0 mi South 5.8 mph - N/A   Scattered Clouds
1:15 AM 73.4 °F - 64.4 °F 73% 30.14 in 10.0 mi WSW 5.8 mph - N/A   Mostly Cloudy
1:35 AM 71.6 °F - 64.4 °F 78% 30.14 in 10.0 mi SW 5.8 mph - N/A   Partly Cloudy
1:55 AM 71.6 °F - 64.4 °F 78% 30.13 in 10.0 mi SSE 5.8 mph - N/A   Clear
2:15 AM 71.6 °F - 64.4 °F 78% 30.13 in 10.0 mi SE 4.6 mph - N/A   Scattered Clouds
2:35 AM 71.6 °F - 64.4 °F 78% 30.13 in 10.0 mi Calm Calm - N/A   Partly Cloudy
2:55 AM 69.8 °F - 64.4 °F 83% 30.13 in 10.0 mi Calm Calm - N/A   Clear
3:15 AM 68.0 °F - 64.4 °F 88% 30.13 in 10.0 mi NNW 3.5 mph - N/A   Clear
3:35 AM 66.2 °F - 64.4 °F 94% 30.13 in 10.0 mi NW 3.5 mph - N/A   Clear
3:55 AM 66.2 °F - 64.4 °F 94% 30.13 in 10.0 mi NNW 5.8 mph - N/A   Partly Cloudy
4:15 AM 66.2 °F - 62.6 °F 88% 30.13 in 10.0 mi NNW 4.6 mph - N/A   Partly Cloudy
4:35 AM 66.2 °F - 62.6 °F 88% 30.13 in 10.0 mi NNW 4.6 mph - N/A   Clear
4:55 AM 66.2 °F - 62.6 °F 88% 30.13 in 10.0 mi North 4.6 mph - N/A   Clear
5:15 AM 64.4 °F - 62.6 °F 94% 30.12 in 10.0 mi North 3.5 mph - N/A   Clear
5:35 AM 64.4 °F - 62.6 °F 94% 30.13 in 10.0 mi North 3.5 mph - N/A   Clear
5:55 AM 64.4 °F - 62.6 °F 94% 30.13 in 10.0 mi NNE 5.8 mph - N/A   Clear
6:15 AM 64.4 °F - 62.6 °F 94% 30.13 in 10.0 mi NE 6.9 mph - N/A   Clear
6:35 AM 64.4 °F - 62.6 °F 94% 30.14 in 10.0 mi Calm Calm - N/A   Clear
6:55 AM 64.4 °F - 62.6 °F 94% 30.15 in 10.0 mi WNW 3.5 mph - N/A   Clear
7:15 AM 62.6 °F - 60.8 °F 94% 30.15 in 10.0 mi NNW 4.6 mph - N/A   Clear
7:35 AM 64.4 °F - 62.6 °F 94% 30.15 in 10.0 mi NNE 4.6 mph - N/A   Clear
7:55 AM 66.2 °F - 62.6 °F 88% 30.15 in 10.0 mi NE 3.5 mph - N/A   Clear
8:15 AM 68.0 °F - 64.4 °F 88% 30.16 in 10.0 mi Calm Calm - N/A   Clear
8:35 AM 71.6 °F - 64.4 °F 78% 30.16 in 10.0 mi Calm Calm - N/A   Clear
8:55 AM 73.4 °F - 64.4 °F 73% 30.16 in 10.0 mi Calm Calm - N/A   Clear
9:15 AM 73.4 °F - 64.4 °F 73% 30.16 in 10.0 mi Calm Calm - N/A   Clear
9:35 AM 75.2 °F - 64.4 °F 69% 30.17 in 10.0 mi Calm Calm - N/A   Clear
9:55 AM 78.8 °F - 64.4 °F 61% 30.16 in 10.0 mi Calm Calm - N/A   Clear
10:15 AM 84.2 °F 83.0 °F 55.4 °F 37% 30.17 in 10.0 mi WNW 11.5 mph - N/A   Clear
10:35 AM 84.2 °F 83.0 °F 55.4 °F 37% 30.17 in 10.0 mi West 11.5 mph - N/A   Clear
10:55 AM 86.0 °F - 51.8 °F 31% 30.17 in 10.0 mi WNW 13.8 mph 18.4 mph N/A   Clear
11:15 AM 87.8 °F - 51.8 °F 29% 30.17 in 10.0 mi WNW 13.8 mph - N/A   Clear
11:35 AM 89.6 °F - 48.2 °F 24% 30.17 in 10.0 mi West 12.7 mph - N/A   Clear
11:55 AM 89.6 °F - 46.4 °F 22% 30.17 in 10.0 mi West 13.8 mph 18.4 mph N/A   Clear
12:15 PM 91.4 °F - 42.8 °F 18% 30.17 in 10.0 mi West 13.8 mph - N/A   Clear
12:35 PM 91.4 °F - 44.6 °F 20% 30.16 in 10.0 mi WNW 13.8 mph 20.7 mph N/A   Clear
12:55 PM 93.2 °F - 42.8 °F 17% 30.16 in 10.0 mi West 12.7 mph - N/A   Clear
1:15 PM 93.2 °F - 42.8 °F 17% 30.17 in 10.0 mi WNW 9.2 mph - N/A   Clear
1:35 PM 93.2 °F - 42.8 °F 17% 30.16 in 10.0 mi WSW 3.5 mph 17.3 mph N/A   Clear
1:55 PM 93.2 °F - 41.0 °F 16% 30.16 in 10.0 mi WNW 6.9 mph - N/A   Clear
2:15 PM 95.0 °F - 41.0 °F 15% 30.16 in 10.0 mi West 3.5 mph - N/A   Clear
2:35 PM 95.0 °F - 39.2 °F 14% 30.15 in 10.0 mi Calm Calm - N/A   Clear
2:55 PM 95.0 °F - 42.8 °F 16% 30.15 in 10.0 mi ENE 6.9 mph - N/A   Clear
3:15 PM 95.0 °F - 41.0 °F 15% 30.14 in 10.0 mi WSW 3.5 mph - N/A   Clear
3:35 PM 96.8 °F - 42.8 °F 16% 30.14 in 10.0 mi NW 4.6 mph - N/A   Clear
3:55 PM 96.8 °F - 42.8 °F 16% 30.13 in 10.0 mi West 10.4 mph - N/A   Clear
4:15 PM 95.0 °F - 42.8 °F 16% 30.13 in 10.0 mi West 8.1 mph - N/A   Clear
4:35 PM 96.8 °F - 42.8 °F 16% 30.12 in 10.0 mi WSW 6.9 mph - N/A   Clear
4:55 PM 96.8 °F - 39.2 °F 14% 30.12 in 10.0 mi East 6.9 mph 18.4 mph N/A   Clear
5:15 PM 95.0 °F - 42.8 °F 16% 30.12 in 10.0 mi ESE 5.8 mph - N/A   Clear
5:35 PM 95.0 °F - 42.8 °F 16% 30.11 in 10.0 mi SSW 3.5 mph - N/A   Clear
5:55 PM 95.0 °F - 42.8 °F 16% 30.11 in 10.0 mi ESE 3.5 mph - N/A   Clear
6:15 PM 95.0 °F - 42.8 °F 16% 30.10 in 10.0 mi East 8.1 mph - N/A   Clear
6:35 PM 93.2 °F - 51.8 °F 24% 30.10 in 10.0 mi SE 15.0 mph 20.7 mph N/A   Clear
6:55 PM 91.4 °F - 48.2 °F 23% 30.10 in 10.0 mi SSE 12.7 mph - N/A   Clear
7:15 PM 91.4 °F - 48.2 °F 23% 30.10 in 10.0 mi SSE 11.5 mph - N/A   Clear
7:35 PM 91.4 °F - 50.0 °F 24% 30.10 in 10.0 mi SSE 15.0 mph - N/A   Clear
7:55 PM 87.8 °F - 51.8 °F 29% 30.11 in 10.0 mi SSE 11.5 mph 23.0 mph N/A   Clear
8:15 PM 84.2 °F - 50.0 °F 30% 30.12 in 10.0 mi South 10.4 mph - N/A   Clear
8:35 PM 84.2 °F - 48.2 °F 29% 30.12 in 10.0 mi SSE 8.1 mph - N/A   Clear
8:55 PM 84.2 °F - 48.2 °F 29% 30.12 in 10.0 mi SE 8.1 mph - N/A   Clear
9:15 PM 82.4 °F - 48.2 °F 30% 30.13 in 10.0 mi SE 6.9 mph - N/A   Clear
9:35 PM 82.4 °F - 48.2 °F 30% 30.13 in 10.0 mi SE 5.8 mph - N/A   Clear
9:55 PM 80.6 °F - 50.0 °F 34% 30.14 in 10.0 mi ESE 6.9 mph - N/A   Clear
10:15 PM 77.0 °F - 53.6 °F 44% 30.14 in 10.0 mi East 6.9 mph - N/A   Clear
10:35 PM 75.2 °F - 55.4 °F 50% 30.15 in 10.0 mi East 3.5 mph - N/A   Clear
10:55 PM 75.2 °F - 53.6 °F 47% 30.16 in 10.0 mi Calm Calm - N/A   Clear
11:15 PM 73.4 °F - 55.4 °F 53% 30.16 in 10.0 mi Calm Calm - N/A   Clear
11:35 PM 71.6 °F - 57.2 °F 60% 30.17 in 10.0 mi Calm Calm - N/A   Clear
11:55 PM 71.6 °F - 55.4 °F 57% 30.17 in 10.0 mi Calm Calm - N/A   Clear